| time (UTC) | temp C | wind direction | speed KPH | gust KPH | rain 1hr cm | rain 24hr cm | rain mn cm | humidity % | barometer mb |
| 20260505163359 | 15 | 225 | 3.2 | 12.9 | 0.00 | 0.00 | 0.00 | 73 | 1012.1 |
| 20260505161357 | 16 | 225 | 1.6 | 9.7 | 0.00 | 0.00 | 0.00 | 71 | 1012.2 |
| 20260505153355 | 16 | 225 | 4.8 | 4.8 | 0.00 | 0.00 | 0.00 | 59 | 1012.4 |
| 20260505151354 | 15 | 180 | 3.2 | 3.2 | 0.00 | 0.00 | 0.00 | 54 | 1012.3 |
| 20260505123345 | 19 | 135 | 0.0 | 1.6 | 0.00 | 0.00 | 0.00 | 76 | 1012.2 |
| 20260505121344 | 18 | 225 | 0.0 | 3.2 | 0.00 | 0.00 | 0.00 | 75 | 1012.6 |
| 20260505115343 | 16 | 157 | 0.0 | 1.6 | 0.00 | 0.00 | 0.00 | 67 | 1012.7 |
| 20260505113342 | 16 | 180 | 0.0 | 3.2 | 0.00 | 0.00 | 0.00 | 63 | 1012.9 |
| 20260505111341 | 15 | 202 | 3.2 | 4.8 | 0.00 | 0.00 | 0.00 | 60 | 1013.2 |
| 20260505101337 | 15 | 90 | 0.0 | 0.0 | 0.00 | 0.00 | 0.00 | 31 | 1013.5 |
| 20260505095336 | 14 | 202 | 0.0 | 0.0 | 0.00 | 0.00 | 0.00 | 25 | 1013.7 |
| 20260505093335 | 13 | 157 | 0.0 | 0.0 | 0.00 | 0.00 | 0.00 | 24 | 1013.8 |
| 20260505091334 | 13 | 157 | 0.0 | 0.0 | 0.00 | 0.00 | 0.00 | 24 | 1013.7 |
| 20260505085333 | 13 | 67 | 0.0 | 0.0 | 0.00 | 0.00 | 0.00 | 24 | 1013.7 |
| 20260505083332 | 13 | 112 | 0.0 | 0.0 | 0.00 | 0.00 | 0.00 | 24 | 1013.9 |
| 20260505081330 | 13 | 180 | 0.0 | 0.0 | 0.00 | 0.00 | 0.00 | 23 | 1014.0 |
| 20260505075329 | 12 | 157 | 0.0 | 3.2 | 0.00 | 0.00 | 0.00 | 27 | 1014.0 |
| 20260505073328 | 12 | 157 | 0.0 | 0.0 | 0.00 | 0.00 | 0.00 | 32 | 1014.1 |
| 20260505071327 | 12 | 157 | 0.0 | 0.0 | 0.00 | 0.00 | 0.00 | 36 | 1014.3 |
| 20260505065326 | 12 | 135 | 0.0 | 3.2 | 0.00 | 0.00 | 0.00 | 36 | 1014.4 |
| 20260505063325 | 12 | 112 | 0.0 | 3.2 | 0.00 | 0.00 | 0.00 | 31 | 1014.4 |